Wind_Speed
32 29 28 24 23 23 24 23 23 23 24 24 22 19 21 19 17 18 18 16 15 13 18 22 23 25 28 27 25 21 21 19 21 21 17 15 18 30 25 28 19 19 19
21 21 21 20 19 19 18 18 16 15 12 14 15 26 24 23 23 22 21 20 19 15 14 18 21 22 22 24 27 23 22 21 22 28 23 16 11 21 28 26 24 22 20
14 16 20 23 20 22 21 20 20 17 15 16 17 16 24 26 26 24 22 21 20 19 17 18 18 21 25 25 28 29 27 24 25 25 28 22 15 24 24 20 22 23 23
11 19 20 17 14 13 13 13 15 23 20 19 22 21 18 21 26 24 24 23 22 21 21 21 21 20 23 27 25 27 30 32 25 25 29 27 24 23 25 27 25 28 28
14 10 7 12 16 10 12 13 14 14 18 18 18 20 20 21 23 25 27 25 23 16 20 25 28 26 25 26 29 32 30 29 29 32 32 31 31 31 30 29 31 30 28
11 9 9 12 14 15 16 17 18 18 19 19 18 19 20 21 23 25 24 21 24 22 24 29 30 30 27 31 30 28 28 28 34 34 38 41 38 36 35 31 31 34 33
7 7 7 10 10 10 9 11 12 12 15 18 17 15 17 18 19 21 21 19 24 26 26 26 30 33 34 27 25 30 31 34 31 36 36 34 40 41 38 40 34 36 38
4 4 3 4 5 7 9 9 8 8 9 9 13 16 15 16 19 19 20 20 20 22 29 35 39 39 38 34 36 34 30 30 29 27 33 37 39 38 39 41 42 33 33
2 3 5 6 8 8 9 10 12 13 12 13 12 13 15 14 13 14 14 18 20 21 23 26 31 33 34 33 33 33 33 35 34 33 34 34 38 42 41 38 42 38 36
4 7 9 10 10 9 9 11 13 14 14 15 17 16 16 17 18 19 20 19 20 20 20 21 23 26 29 25 23 27 31 30 30 32 38 38 36 39 48 48 46 49 48
8 7 8 8 6 5 10 9 8 9 10 10 9 8 8 13 13 11 12 17 21 22 21 18 14 14 16 18 21 24 27 28 30 30 31 34 37 42 44 50 52 51 48
5 5 6 8 8 11 12 11 11 10 7 7 7 5 7 6 10 10 11 17 18 21 22 21 18 22 24 26 29 31 33 34 36 34 33 37 39 46 50 49 49 52 54
4 7 10 11 10 12 11 10 8 10 11 13 15 14 14 15 16 16 14 13 14 16 17 20 24 23 26 26 27 27 28 32 34 35 41 39 35 34 35 45 48 48 49
5 8 7 5 4 4 4 3 8 9 14 17 17 18 17 12 11 13 15 17 19 21 23 25 26 29 30 29 30 33 32 32 31 30 31 37 39 37 36 43 45 49 43
8 3 2 6 6 5 5 4 4 7 13 14 18 18 20 21 19 18 17 17 17 17 18 17 18 21 25 29 31 30 28 30 34 33 31 32 33 35 34 33 36 34 40
4 3 6 10 7 6 7 1 3 7 8 11 12 14 14 15 16 17 16 15 18 14 16 20 16 16 19 21 22 22 25 28 28 30 33 30 32 32 33 33 32 37 42
9 9 6 12 14 12 12 13 12 10 12 12 9 9 13 16 19 17 17 15 12 9 14 19 19 19 20 19 20 21 24 25 27 23 24 26 28 29 27 31 36 42 43
9 6 7 8 9 10 13 11 9 10 13 11 11 12 19 19 10 15 17 17 12 10 10 13 14 15 15 19 20 22 21 22 23 24 21 21 23 23 25 28 32 41 47
9 7 8 7 11 9 10 7 8 10 10 9 16 19 24 13 14 17 18 17 17 17 18 19 18 19 19 19 18 20 20 19 21 23 23 21 19 19 22 20 23 27 44
6 10 8 9 7 8 6 10 8 12 9 10 15 19 23 21 21 23 22 21 20 19 20 22 21 20 19 20 20 18 19 20 21 24 23 21 20 21 19 23 22 26 26
5 6 6 8 12 9 9 8 5 6 12 14 14 17 20 13 15 20 23 24 25 23 23 23 23 23 21 21 21 22 22 22 23 25 26 22 23 22 21 20 20 19 23
6 11 11 7 4 10 10 8 13 13 9 11 11 13 15 16 11 15 16 19 24 22 24 25 25 26 25 25 23 24 25 27 27 26 26 24 22 22 23 21 20 19 17
11 7 7 7 8 6 7 7 9 11 12 11 13 13 14 13 16 17 15 17 23 16 20 22 23 23 27 28 25 28 29 32 31 28 28 28 25 23 20 20 20 21 21
5 5 6 3 8 7 8 7 9 12 14 15 16 15 16 17 16 16 17 19 21 19 17 19 17 20 25 30 31 32 32 31 30 27 26 27 24 23 23 22 22 19 21
6 7 6 5 6 7 9 5 9 13 14 15 13 14 15 17 16 15 20 17 18 23 17 17 17 22 25 27 29 30 31 29 29 26 23 22 25 22 19 19 23 22 19
7 5 4 5 8 7 9 10 14 15 13 14 16 16 20 17 17 18 13 15 20 21 18 18 20 25 27 25 28 31 31 30 27 25 23 20 22 21 21 18 16 20 22
Wind_Direction
233 238 242 249 261 263 255 254 251 251 253 246 257 262 264 262 263 263 256 257 257 254 241 237 240 236 234 232 235 238 244 247 254 253 257 276 249 228 222 223 237 226 230
232 241 249 256 263 263 263 261 262 261 267 272 262 246 252 259 263 267 267 263 263 265 260 253 240 243 242 241 237 239 241 244 255 258 254 271 267 235 228 223 230 227 240
222 248 255 260 265 263 263 271 265 270 272 273 271 270 247 250 257 264 264 266 269 272 269 265 257 251 244 244 238 238 239 244 247 259 255 261 263 230 223 229 233 249 249
243 243 249 250 249 264 256 264 257 261 266 261 267 270 261 256 256 260 263 257 255 266 274 270 267 265 258 250 250 246 243 244 250 257 259 257 244 223 236 243 237 230 248
175 179 145 173 213 218 208 223 248 255 247 249 261 268 266 258 254 255 258 259 252 250 268 272 272 270 271 264 255 248 245 245 248 248 252 254 254 237 233 243 244 246 248
213 225 228 220 220 233 241 248 255 258 257 256 258 261 263 265 265 267 271 266 257 255 241 249 261 274 269 265 267 268 261 250 247 250 251 256 243 238 238 245 240 241 242
221 233 248 258 253 250 257 265 262 269 272 265 262 268 276 276 276 277 276 266 261 263 266 249 261 256 265 270 264 265 265 266 264 261 257 251 244 241 242 242 244 239 249
248 268 271 266 261 256 260 267 268 261 266 281 269 262 269 273 278 286 286 280 267 261 261 260 262 268 272 272 277 275 268 264 267 268 260 256 250 249 247 246 248 249 250
251 291 296 290 287 281 271 263 261 263 271 273 274 277 282 280 278 285 285 287 285 278 270 263 263 267 268 271 272 273 272 275 276 270 266 267 257 256 253 246 243 245 243
295 299 298 299 303 302 292 292 292 289 286 280 276 282 289 289 289 287 289 287 290 294 295 287 279 271 270 273 277 277 276 277 283 285 278 272 263 256 253 250 248 243 243
309 306 309 322 336 319 337 341 4 32 32 23 10 356 334 311 297 279 271 281 284 286 293 299 280 275 273 269 265 266 268 274 277 284 277 271 269 266 259 252 248 247 249
323 345 357 16 34 22 24 48 37 28 31 12 359 22 9 342 329 329 302 281 274 272 276 274 269 263 266 267 272 275 279 280 281 278 277 268 279 283 272 254 250 248 245
26 36 51 36 24 18 24 22 2 338 335 338 330 314 305 307 304 305 306 310 294 278 278 281 274 272 279 285 294 286 292 292 296 279 272 276 284 289 282 266 256 252 245
60 66 24 50 72 359 336 35 354 8 360 8 24 18 9 360 342 338 324 312 296 284 286 285 288 285 287 290 291 295 297 301 304 299 290 289 290 285 286 263 253 238 240
103 54 315 285 285 273 285 337 47 20 5 37 35 29 26 24 18 9 1 357 350 335 324 320 307 298 294 293 294 298 305 307 305 297 295 295 299 287 285 264 250 236 239
115 11 17 16 358 350 359 359 95 23 51 14 2 18 23 16 7 358 348 352 353 348 356 359 351 345 339 333 327 319 312 310 305 298 296 298 296 295 278 271 257 250 249
82 67 46 9 40 35 40 83 68 44 17 1 358 1 1 350 346 342 340 343 346 352 356 1 1 355 348 336 329 327 322 322 306 310 311 306 302 298 295 272 262 260 253
73 93 57 40 28 62 73 51 38 27 18 17 22 6 1 352 339 334 327 332 347 359 0 343 339 338 341 335 335 339 329 335 339 340 331 323 315 298 298 300 285 269 262
41 61 71 50 49 65 39 27 32 17 11 357 349 348 353 355 352 353 349 351 352 345 339 331 327 322 323 321 321 326 327 339 338 338 341 336 332 316 302 295 307 273 258
46 90 74 40 50 45 59 53 54 33 47 7 6 2 358 17 14 10 5 8 7 5 0 356 349 333 325 325 331 324 317 319 328 325 326 334 330 324 317 314 292 299 285
91 103 121 75 52 62 58 51 31 19 42 20 5 360 10 15 4 5 5 5 6 4 6 6 7 4 356 342 326 320 323 321 318 315 316 311 311 319 325 322 317 314 296
147 92 91 97 59 63 49 28 15 24 18 12 5 8 15 16 12 7 1 359 354 4 3 2 1 2 359 0 354 349 347 342 333 320 315 310 304 308 306 309 314 316 309
113 136 126 82 74 66 33 29 18 16 10 350 354 354 356 352 352 345 346 342 345 358 357 353 353 353 352 354 352 347 341 342 340 326 327 319 305 298 299 299 299 301 303
121 148 167 88 18 36 22 1 3 6 353 339 342 342 341 334 335 332 339 334 332 345 350 352 352 347 342 337 338 339 340 336 337 335 331 329 320 300 295 296 299 293 289
143 136 100 28 343 37 25 42 2 351 345 347 347 342 334 329 333 337 334 325 330 341 338 342 328 327 329 330 331 332 334 334 334 333 332 336 339 327 305 297 296 295 290
169 145 123 45 91 27 1 341 338 342 341 338 337 334 333 340 342 336 325 324 330 333 332 324 316 321 325 331 335 336 336 335 331 330 324 323 324 334 332 324 302 292 286
Height
1523 1526 1530 1533 1535 1537 1538 1541 1544 1547 1549 1551 1550 1550 1549 1550 1551 1552 1554 1554 1553 1553 1554 1557 1559 1561 1563 1565 1566 1568 1568 1570 1568 1568 1570 1571 1568 1571 1574 1577 1579 1580 1582
1523 1525 1528 1530 1531 1533 1534 1536 1538 1540 1543 1544 1545 1544 1544 1545 1547 1548 1549 1550 1548 1550 1550 1552 1554 1557 1559 1560 1562 1564 1563 1564 1564 1564 1564 1566 1565 1566 1569 1570 1573 1575 1578
1522 1523 1523 1525 1527 1528 1530 1531 1532 1534 1536 1538 1538 1539 1539 1541 1542 1543 1544 1544 1543 1545 1548 1549 1550 1552 1553 1554 1555 1557 1558 1560 1560 1559 1560 1563 1563 1563 1564 1565 1568 1570 1572
1522 1522 1521 1523 1525 1527 1529 1530 1528 1530 1531 1532 1533 1534 1534 1535 1537 1538 1537 1537 1539 1541 1542 1544 1545 1545 1546 1547 1549 1550 1552 1555 1556 1556 1557 1559 1561 1561 1562 1563 1562 1564 1566
1519 1519 1519 1520 1523 1524 1525 1525 1525 1526 1527 1528 1528 1529 1528 1529 1530 1532 1530 1532 1534 1537 1539 1536 1536 1538 1541 1543 1543 1544 1546 1548 1550 1551 1551 1552 1552 1554 1554 1556 1558 1559 1560
1517 1518 1520 1521 1521 1522 1522 1522 1522 1523 1523 1524 1524 1524 1524 1523 1525 1525 1527 1528 1524 1514 1528 1526 1526 1528 1529 1532 1535 1538 1539 1540 1541 1541 1540 1539 1543 1545 1548 1548 1550 1552 1552
1516 1517 1518 1518 1518 1518 1519 1518 1518 1519 1519 1519 1519 1520 1520 1520 1521 1521 1522 1523 1522 1521 1522 1522 1523 1522 1523 1525 1529 1519 1529 1531 1532 1533 1533 1532 1533 1536 1540 1541 1541 1541 1541
1516 1517 1517 1517 1517 1517 1517 1516 1515 1515 1515 1515 1516 1516 1516 1516 1516 1516 1516 1517 1518 1517 1517 1517 1516 1516 1517 1518 1520 1521 1520 1520 1523 1524 1523 1524 1525 1528 1531 1532 1534 1535 1537
1516 1516 1516 1516 1516 1516 1515 1514 1513 1512 1513 1512 1511 1510 1510 1511 1512 1511 1511 1510 1510 1510 1511 1511 1509 1507 1509 1511 1512 1512 1511 1510 1514 1515 1515 1516 1518 1520 1521 1524 1524 1527 1526
1515 1515 1514 1513 1513 1513 1511 1510 1510 1509 1509 1508 1508 1508 1507 1508 1508 1508 1507 1506 1506 1505 1505 1504 1504 1503 1504 1505 1504 1504 1503 1505 1506 1506 1504 1504 1507 1508 1510 1512 1513 1514 1514
1513 1512 1511 1511 1511 1510 1510 1509 1508 1508 1507 1507 1506 1505 1504 1502 1500 1500 1499 1499 1500 1500 1500 1499 1499 1498 1498 1498 1498 1497 1496 1497 1496 1495 1494 1494 1495 1496 1497 1497 1500 1502 1505
1511 1510 1510 1510 1510 1510 1509 1508 1508 1506 1505 1504 1503 1503 1501 1499 1497 1496 1494 1494 1493 1493 1493 1494 1493 1493 1493 1493 1492 1491 1490 1489 1487 1487 1485 1484 1484 1483 1480 1483 1485 1488 1491
1510 1510 1510 1510 1510 1509 1508 1508 1507 1506 1504 1503 1500 1498 1497 1496 1494 1493 1492 1491 1490 1489 1488 1487 1487 1487 1487 1486 1485 1483 1482 1479 1477 1475 1474 1473 1474 1472 1469 1469 1472 1474 1477
1510 1510 1510 1509 1509 1508 1506 1506 1506 1505 1504 1502 1499 1497 1495 1493 1492 1490 1488 1486 1485 1485 1484 1482 1481 1480 1480 1478 1477 1476 1474 1471 1469 1466 1463 1462 1460 1460 1457 1456 1455 1459 1463
1509 1509 1509 1509 1507 1506 1505 1505 1505 1504 1504 1502 1500 1498 1497 1495 1492 1489 1486 1484 1481 1479 1477 1475 1474 1472 1470 1468 1468 1467 1466 1463 1461 1459 1458 1455 1452 1449 1448 1446 1444 1450 1452
1507 1508 1508 1508 1506 1504 1503 1503 1505 1505 1504 1503 1502 1500 1498 1495 1493 1490 1486 1483 1480 1477 1476 1473 1470 1468 1465 1463 1461 1460 1459 1457 1454 1452 1449 1447 1444 1442 1441 1442 1442 1443 1443
1507 1509 1508 1508 1506 1505 1505 1505 1506 1505 1505 1503 1502 1501 1498 1495 1492 1489 1485 1482 1479 1477 1474 1472 1469 1466 1464 1462 1459 1457 1454 1451 1448 1445 1442 1440 1437 1435 1434 1434 1435 1434 1432
1507 1508 1508 1507 1506 1506 1507 1507 1507 1506 1505 1503 1502 1501 1498 1494 1490 1486 1483 1480 1477 1475 1473 1471 1468 1465 1462 1459 1456 1453 1450 1446 1443 1440 1436 1434 1432 1428 1428 1425 1424 1423 1422
1508 1507 1507 1508 1508 1507 1507 1507 1506 1506 1505 1503 1502 1499 1496 1492 1489 1486 1482 1479 1476 1474 1471 1468 1465 1462 1458 1455 1453 1451 1447 1444 1440 1436 1433 1430 1427 1424 1422 1421 1418 1414 1413
1507 1507 1508 1508 1508 1507 1507 1506 1506 1505 1503 1502 1499 1497 1494 1491 1488 1485 1482 1479 1476 1473 1470 1466 1462 1458 1455 1452 1449 1447 1444 1441 1437 1433 1431 1427 1424 1421 1417 1413 1412 1410 1409
1507 1508 1509 1510 1509 1508 1507 1507 1506 1505 1504 1501 1499 1497 1494 1491 1489 1486 1483 1480 1477 1474 1470 1467 1462 1458 1454 1449 1446 1443 1440 1437 1433 1430 1426 1423 1421 1417 1413 1409 1405 1402 1400
1507 1508 1509 1509 1509 1509 1509 1508 1507 1506 1504 1502 1500 1497 1494 1492 1489 1486 1483 1480 1477 1474 1471 1467 1464 1460 1455 1449 1444 1440 1436 1432 1428 1423 1419 1416 1414 1412 1409 1405 1402 1399 1397
1506 1507 1508 1509 1509 1509 1509 1507 1506 1505 1503 1501 1499 1496 1492 1490 1487 1484 1481 1479 1476 1473 1470 1466 1463 1458 1454 1449 1445 1440 1434 1429 1423 1419 1414 1410 1407 1405 1403 1400 1398 1395 1393
1506 1507 1507 1507 1508 1507 1507 1506 1505 1503 1502 1500 1497 1495 1491 1488 1486 1484 1479 1475 1473 1471 1468 1464 1460 1455 1451 1447 1442 1437 1433 1427 1421 1416 1411 1406 1401 1398 1396 1394 1393 1390 1387
1506 1506 1507 1507 1507 1507 1506 1505 1504 1502 1501 1499 1496 1493 1490 1487 1483 1480 1476 1472 1470 1467 1465 1462 1457 1454 1450 1445 1440 1434 1429 1424 1418 1413 1408 1403 1398 1393 1390 1387 1384 1382 1381
1504 1506 1506 1507 1507 1507 1506 1504 1502 1500 1498 1496 1494 1490 1487 1483 1481 1477 1473 1470 1467 1464 1462 1458 1454 1451 1447 1442 1436 1430 1424 1419 1414 1409 1404 1400 1396 1391 1386 1382 1379 1375 1373